Погода в Ивановке

Украина / Донецкая область     47°34′39″N   37°19′03″E
темп.,
°C
ветер,
м/с
пор.,
м/с
влажн.,
%
обл.,
%
осадки,
мм/ч
давл.,
гПа
погр.,
м
20 апреля, вт
вт2000:00+8ю229197 0.0 101222
03:00+8в348745 0.0 101083
06:00+7всв3487100 0.1 100896
09:00+8в41096100 2.8 1007435
12:00+9вюв4897100 4.1 1005496
15:00+10ю6129699 4.8 1004657
18:00+12ююз7118022 0.8 1003983
21:00+8ююз6128926 0.8 1005413
21 апреля, ср
ср2100:00+8юз5895100 0.4 1007476
03:00+8зюз7139166 0.7 1009595
06:00+6зюз41192100 0.0 1012298
09:00+11зюз696582 0.0 1014844
12:00+14зюз6849100 0.0 10152035
15:00+15зюз6842100 0.0 10152461
18:00+14юз685960 0.2 1017925
21:00+9ююз4108187 0.3 1019263
22 апреля, чт
чт2200:00+7юз36885 0.0 1020108
03:00+7юз23905 0.0 102136
06:00+6юз22895 0.0 102121
09:00+12юз34640 0.0 1022654
12:00+16ююз444765 0.1 10221962
15:00+14ююз4657100 0.1 1021398
18:00+15з225399 0.0 1021772
21:00+11юз357065 0.1 1022137
23 апреля, пт
пт2300:00+8зюз22811 0.0 102224
03:00+7зюз22843 0.0 102212
06:00+7юз11850 0.0 102212
09:00+13ююз33655 0.0 1022589
12:00+16ююз555123 0.2 10211817
15:00+15ююз685240 0.3 1020653
18:00+14ююз566058 0.0 1019948
21:00+9ю3784100 0.0 1019147
24 апреля, сб
сб2400:00+8ю4118431 0.0 1018245
03:00+7ююз34937 0.0 101782
06:00+7юз3991100 0.0 1017261
09:00+9зсз5784100 0.3 1017710
12:00+12зсз576098 0.4 10181397
15:00+14зсз5739100 0.4 10182588
18:00+12зсз44455 0.0 10181736
21:00+8зсз35635 0.0 101978